Weather History for KPIR - April, 2013

Change the Weather History Date:

Wednesday, April 3, 2013

  Actual Average Record
Temperature  
Mean Temperature 51 °F 42 °F  
Max Temperature 74 °F 54 °F 83 °F (1943)
Min Temperature 28 °F 30 °F 1 °F (1936)
Degree Days  
Heating Degree Days 14 23  
Month to date heating degree days 79 71  
Since 1 July heating degree days 6604 6516  
Cooling Degree Days 0 0  
Month to date cooling degree days 0 0  
Year to date cooling degree days 0 0  
Moisture  
Dew Point 25 °F    
Average Humidity 47    
Maximum Humidity 78    
Minimum Humidity 15    
Precipitation  
Precipitation T in 0.05 in 0.79 in (1968)
Month to date precipitation T 0.14  
Year to date precipitation 1.81 2.38  
Snow  
Snow 0.00 in 0.10 in 7.60 in (1968)
Month to date snowfall 0.0 0.5  
Since 1 July snowfall 34.7 28.3  
Snow Depth 0.00 in    
Sea Level Pressure  
Sea Level Pressure 30.04 in    
Wind  
Wind Speed 14 mph (SSE)    
Max Wind Speed 36 mph    
Max Gust Speed 40 mph    
Visibility 10 miles    
Events      
T = Trace of Precipitation, MM = Missing Value Source: NWS Daily Summary

Daily Weather History Graph

Daily Weather History Graph

Search for Another Location

Airport or City:

Trip Planner

Search our weather history database for the weather conditions in past years. The results will help you decide how hot, cold, wet, or windy it might be!

Date:

Astronomy

Apr. 03, 2013 Rise Set
Actual Time 7:18 AM CDT 8:11 PM CDT
Civil Twilight 6:48 AM CDT 8:40 PM CDT
Nautical Twilight 6:13 AM CDT 9:16 PM CDT
Astronomical Twilight 5:36 AM CDT 9:52 PM CDT
Moon 3:14 AM CDT (4/3) 1:11 PM CDT (4/3)
Length of Visible Light 13h 52m
Length of Day
12h 53m
Last Quarter, 44% of the Moon is Illuminated
Apr 3
Last Quarter
Apr 10
New
Apr 18
First Quarter
Apr 25
Full
May 2
Last Quarter

Hourly Weather History & Observations

Time (CDT) Temp. Windchill Dew Point Humidity Pressure Visibility Wind Dir Wind Speed Gust Speed Precip Events Conditions
12:53 AM 32.0 °F 23.0 °F 23.0 °F 69% 30.21 in 10.0 mi ESE 11.5 mph - N/A   Clear
1:53 AM 30.9 °F 21.7 °F 23.0 °F 72% 30.19 in 10.0 mi ESE 11.5 mph - N/A   Clear
2:53 AM 28.9 °F 20.4 °F 21.9 °F 75% 30.18 in 10.0 mi ESE 9.2 mph - N/A   Clear
3:53 AM 28.0 °F 20.8 °F 21.9 °F 78% 30.18 in 10.0 mi SE 6.9 mph - N/A   Clear
4:53 AM 28.9 °F 20.4 °F 21.9 °F 75% 30.15 in 10.0 mi ESE 9.2 mph - N/A   Clear
5:53 AM 28.9 °F 19.8 °F 21.9 °F 75% 30.14 in 10.0 mi SE 10.4 mph - N/A   Clear
6:53 AM 28.0 °F 16.1 °F 21.9 °F 78% 30.13 in 10.0 mi SE 16.1 mph - N/A   Clear
7:53 AM 28.0 °F 16.5 °F 23.0 °F 81% 30.13 in 10.0 mi SE 15.0 mph - N/A   Clear
8:53 AM 30.9 °F 20.7 °F 24.1 °F 76% 30.12 in 10.0 mi SE 13.8 mph - N/A   Clear
9:53 AM 37.9 °F 30.9 °F 26.1 °F 62% 30.09 in 10.0 mi SE 10.4 mph - N/A   Clear
10:53 AM 48.0 °F - 30.0 °F 50% 30.06 in 10.0 mi SSE 11.5 mph - N/A   Clear
11:53 AM 60.1 °F - 30.9 °F 33% 30.02 in 10.0 mi SSW 10.4 mph - N/A   Clear
12:53 PM 68.0 °F - 26.1 °F 21% 29.97 in 10.0 mi SW 18.4 mph 25.3 mph N/A   Clear
1:53 PM 71.1 °F - 23.0 °F 16% 29.94 in 10.0 mi SSW 24.2 mph 29.9 mph N/A   Clear
2:53 PM 72.0 °F - 21.0 °F 15% 29.92 in 10.0 mi SSW 20.7 mph 25.3 mph N/A   Clear
3:53 PM 73.0 °F - 25.0 °F 17% 29.90 in 10.0 mi SSW 19.6 mph 25.3 mph N/A   Clear
4:53 PM 71.1 °F - 24.1 °F 17% 29.90 in 10.0 mi SW 12.7 mph - N/A   Clear
5:53 PM 73.0 °F - 25.0 °F 17% 29.87 in 10.0 mi SSW 9.2 mph 20.7 mph N/A   Clear
6:53 PM 69.1 °F - 25.0 °F 19% 29.88 in 10.0 mi NW 9.2 mph - N/A   Mostly Cloudy
7:53 PM 64.9 °F - 27.0 °F 24% 29.89 in 10.0 mi NNW 8.1 mph - N/A   Overcast
8:53 PM 55.0 °F - 27.0 °F 34% 29.91 in 10.0 mi NNW 6.9 mph - N/A   Scattered Clouds
9:53 PM 53.1 °F - 33.1 °F 47% 29.97 in 10.0 mi North 24.2 mph 34.5 mph N/A   Overcast
10:53 PM 46.9 °F - 32.0 °F 56% 30.02 in 10.0 mi North 23.0 mph 28.8 mph N/A   Mostly Cloudy
11:53 PM 45.0 °F 38.2 °F 28.9 °F 53% 30.08 in 10.0 mi NNE 15.0 mph - N/A   Overcast